{"data":{"norad_id":57516,"intl_designator":"2023-113X","name":"STARLINK-30149","alt_names":[],"object_type":"PAYLOAD","status":"ACTIVE","operator":null,"country":"US","launch_date":"2023-08-07","launch_site_code":"AFETR","launch_vehicle":null,"mission":null,"orbit_class":"UNKNOWN","rcs_meters":null,"size_class":null,"mass_kg":null,"dimensions":null,"purposes":["comms"],"wikipedia_slug":null,"has_3d_model":false,"image_url":null,"decayed_at":null,"tle_current":{"epoch":"2026-09-20T06:13:08.987520Z","epoch_age_seconds":148458,"freshness":"FRESH","line1":"1 57516U 23113X   26263.25913180 -.00000132  00000+0  47377-5 0  9991","line2":"2 57516  43.0060 357.1127 0001927 269.3531  90.7100 15.27573500173332","mean_motion":15.275735,"eccentricity":0.0001927,"inclination_deg":43.006,"raan_deg":357.1127,"arg_perigee_deg":269.3531,"mean_anomaly_deg":90.71,"bstar":4.7377e-6,"rev_number":17333,"period_min":94.267149829452,"perigee_km":481.74640513572,"apogee_km":484.39071375834,"semimajor_km":6861.205559447,"source":"CELESTRAK","updated_at":"2026-09-21T09:00:33.636368Z"}}}